,,,PA_Meas_PMT16A,,PR_Meas_QMR101_102,,RH_Meas_QMH101,,SR_Meas_QMS101,,TA_Meas_QMH101,,GenWind,,GenWind,
date,time,status,PA,status,PR,status,RH,status,SR,status,TA,status,DirAvg,status,SpdAvg,
2011-04-14, 00:00:04,VALID,1001.49,VALID,0,VALID,88.4883,VALID,0,VALID,24.1482,VALID,16,VALID,4.29102,
2011-04-14, 00:01:04,VALID,1001.47,VALID,0,VALID,87.794,VALID,0,VALID,24.0897,VALID,23,VALID,5.36484,
2011-04-14, 00:02:04,VALID,1001.5,VALID,0,VALID,87.9848,VALID,0,VALID,24.0897,VALID,22,VALID,4.11797,
2011-04-14, 00:03:04,VALID,1001.39,VALID,0,VALID,87.382,VALID,0,VALID,23.9726,VALID,12,VALID,4.99844,
2011-04-14, 00:04:04,VALID,1001.46,VALID,0,VALID,87.6949,VALID,0,VALID,23.8945,VALID,8,VALID,4.96406,
2011-04-14, 00:05:04,VALID,1001.5,VALID,0,VALID,88.0534,VALID,0,VALID,23.797,VALID,11,VALID,4.10977,
2011-04-14, 00:06:04,VALID,1001.47,VALID,0,VALID,88.6562,VALID,0,VALID,23.7402,VALID,18,VALID,2.74688,
2011-04-14, 00:07:04,VALID,1001.48,VALID,0.5,VALID,89.381,VALID,0,VALID,23.6604,VALID,14,VALID,2.89844,
2011-04-14, 00:08:04,VALID,1001.46,VALID,0,VALID,89.854,VALID,0,VALID,23.6019,VALID,16,VALID,3.02344,
2011-04-14, 00:09:04,VALID,1001.45,VALID,0,VALID,90.1287,VALID,0,VALID,23.5433,VALID,3,VALID,2.6543,
2011-04-14, 00:10:04,VALID,1001.43,VALID,0,VALID,90.3271,VALID,0,VALID,23.4848,VALID,11,VALID,3.08086,
2011-04-14, 00:11:04,VALID,1001.41,VALID,0,VALID,90.5712,VALID,0,VALID,23.4866,VALID,11,VALID,3.10781,
2011-04-14, 00:12:04,VALID,1001.47,VALID,0.5,VALID,90.8383,VALID,0,VALID,23.4458,VALID,14,VALID,2.94219,
2011-04-14, 00:13:04,VALID,1001.46,VALID,0,VALID,91.0595,VALID,0,VALID,23.4067,VALID,15,VALID,2.80156,
2011-04-14, 00:14:04,VALID,1001.47,VALID,0,VALID,91.2808,VALID,0,VALID,23.3677,VALID,10,VALID,2.44492,
2011-04-14, 00:15:04,VALID,1001.48,VALID,0,VALID,91.441,VALID,0,VALID,23.3482,VALID,19,VALID,2.51758,
2011-04-14, 00:16:04,VALID,1001.51,VALID,0,VALID,91.6165,VALID,0,VALID,23.3287,VALID,15,VALID,2.76953,
2011-04-14, 00:17:04,VALID,1001.52,VALID,0,VALID,91.7309,VALID,0,VALID,23.2897,VALID,4,VALID,2.67188,
2011-04-14, 00:18:04,VALID,1001.52,VALID,0,VALID,91.7996,VALID,0,VALID,23.3305,VALID,23,VALID,2.70117,
2011-04-14, 00:19:04,VALID,1001.53,VALID,0.5,VALID,91.9064,VALID,0,VALID,23.311,VALID,20,VALID,2.61289,
2011-04-14, 00:20:04,VALID,1001.54,VALID,0,VALID,91.9598,VALID,0,VALID,23.311,VALID,14,VALID,2.7957,
2011-04-14, 00:21:04,VALID,1001.56,VALID,0,VALID,92.0056,VALID,0.112286,VALID,23.311,VALID,15,VALID,2.25977,
2011-04-14, 00:22:04,VALID,1001.54,VALID,0,VALID,92.0361,VALID,0,VALID,23.311,VALID,19,VALID,2.90039,
2011-04-14, 00:23:04,VALID,1001.52,VALID,0,VALID,92.0437,VALID,0,VALID,23.3305,VALID,30,VALID,2.66953,
2011-04-14, 00:24:04,VALID,1001.55,VALID,0,VALID,92.0285,VALID,0,VALID,23.3092,VALID,22,VALID,2.81211,
2011-04-14, 00:25:04,VALID,1001.58,VALID,0,VALID,91.998,VALID,0.112286,VALID,23.3287,VALID,20,VALID,3.27109,
2011-04-14, 00:26:04,VALID,1001.65,VALID,0,VALID,91.9598,VALID,0,VALID,23.389,VALID,7,VALID,2.30469,
2011-04-14, 00:27:04,VALID,1001.65,VALID,0,VALID,91.9217,VALID,0,VALID,23.3482,VALID,12,VALID,2.02109,
2011-04-14, 00:28:04,VALID,1001.65,VALID,0.5,VALID,91.8988,VALID,0.112286,VALID,23.3677,VALID,4,VALID,1.96797,
2011-04-14, 00:29:04,VALID,1001.72,VALID,0,VALID,91.9064,VALID,0,VALID,23.35,VALID,22,VALID,1.625,
2011-04-14, 00:30:04,VALID,1001.77,VALID,0.5,VALID,91.914,VALID,0,VALID,23.3092,VALID,3,VALID,1.89141,
2011-04-14, 00:31:04,VALID,1001.79,VALID,0,VALID,91.9293,VALID,0,VALID,23.2719,VALID,9,VALID,2.11133,
2011-04-14, 00:32:04,VALID,1001.83,VALID,0.5,VALID,91.9522,VALID,0,VALID,23.2524,VALID,353,VALID,1.67227,
2011-04-14, 00:33:04,VALID,1001.88,VALID,0.5,VALID,92.0361,VALID,0.112286,VALID,23.1921,VALID,342,VALID,1.10391,
2011-04-14, 00:34:04,VALID,1001.93,VALID,0.5,VALID,92.1048,VALID,0,VALID,23.1726,VALID,321,VALID,1.1168,
2011-04-14, 00:35:04,VALID,1001.87,VALID,0,VALID,92.2192,VALID,0,VALID,23.2134,VALID,307,VALID,2.11953,
2011-04-14, 00:36:04,VALID,1001.84,VALID,0.5,VALID,92.2955,VALID,0,VALID,23.1921,VALID,347,VALID,2.52578,
2011-04-14, 00:37:04,VALID,1001.76,VALID,0.5,VALID,92.3642,VALID,0,VALID,23.1939,VALID,348,VALID,1.94375,
2011-04-14, 00:38:04,VALID,1001.74,VALID,0.5,VALID,92.3947,VALID,0,VALID,23.1159,VALID,338,VALID,1.88477,
2011-04-14, 00:39:04,VALID,1001.69,VALID,0.5,VALID,92.4405,VALID,0.112286,VALID,23.0556,VALID,329,VALID,1.98789,
2011-04-14, 00:40:04,VALID,1001.61,VALID,0.5,VALID,92.4939,VALID,0.112286,VALID,23.0573,VALID,349,VALID,2.17383,
2011-04-14, 00:41:04,VALID,1001.56,VALID,0,VALID,92.5091,VALID,0,VALID,23.0166,VALID,338,VALID,2.18359,
2011-04-14, 00:42:04,VALID,1001.6,VALID,0.5,VALID,92.5626,VALID,0,VALID,23.0183,VALID,352,VALID,1.63437,
2011-04-14, 00:43:04,VALID,1001.54,VALID,0,VALID,92.6083,VALID,0,VALID,22.9776,VALID,314,VALID,2.36758,
2011-04-14, 00:44:04,VALID,1001.53,VALID,0,VALID,92.6541,VALID,0,VALID,22.9581,VALID,318,VALID,1.4043,
2011-04-14, 00:45:04,VALID,1001.57,VALID,0,VALID,92.677,VALID,0,VALID,22.9598,VALID,326,VALID,1.20078,
2011-04-14, 00:46:04,VALID,1001.59,VALID,0,VALID,92.7304,VALID,0,VALID,22.9598,VALID,327,VALID,1.19844,
2011-04-14, 00:47:04,VALID,1001.61,VALID,0.5,VALID,92.7609,VALID,0,VALID,22.9776,VALID,292,VALID,1.3668,
2011-04-14, 00:48:04,VALID,1001.6,VALID,0,VALID,92.8143,VALID,0,VALID,22.9793,VALID,299,VALID,0.925,
2011-04-14, 00:49:04,VALID,1001.58,VALID,0,VALID,92.8296,VALID,0,VALID,22.9793,VALID,316,VALID,0.878906,
2011-04-14, 00:50:04,VALID,1001.56,VALID,0.5,VALID,92.8601,VALID,0,VALID,22.9793,VALID,308,VALID,0.420312,
2011-04-14, 00:51:04,VALID,1001.5,VALID,0,VALID,92.8983,VALID,0,VALID,22.9385,VALID,311,VALID,2.79063,
2011-04-14, 00:52:04,VALID,1001.45,VALID,0.5,VALID,92.9211,VALID,0,VALID,22.919,VALID,339,VALID,2.09453,
2011-04-14, 00:53:04,VALID,1001.44,VALID,0,VALID,92.9364,VALID,0,VALID,22.9208,VALID,346,VALID,1.49883,
2011-04-14, 00:54:04,VALID,1001.43,VALID,0.5,VALID,92.9669,VALID,0,VALID,22.9208,VALID,295,VALID,1.28594,
2011-04-14, 00:55:04,VALID,1001.44,VALID,0,VALID,92.9974,VALID,0,VALID,22.8605,VALID,312,VALID,1.18984,
2011-04-14, 00:56:04,VALID,1001.45,VALID,0,VALID,93.0127,VALID,0,VALID,22.8427,VALID,310,VALID,2.55781,
2011-04-14, 00:57:04,VALID,1001.42,VALID,0.5,VALID,93.0432,VALID,0,VALID,22.8037,VALID,307,VALID,1.35312,
2011-04-14, 00:58:04,VALID,1001.39,VALID,0,VALID,93.0203,VALID,0,VALID,22.7452,VALID,291,VALID,1.43125,
2011-04-14, 00:59:04,VALID,1001.32,VALID,0.5,VALID,93.0508,VALID,0,VALID,22.7257,VALID,300,VALID,0.413672,
2011-04-14, 01:00:04,VALID,1001.3,VALID,0,VALID,93.0585,VALID,0,VALID,22.6867,VALID,293,VALID,1.47891,
2011-04-14, 01:01:04,VALID,1001.26,VALID,0.5,VALID,93.0661,VALID,0,VALID,22.646,VALID,309,VALID,1.04297,
2011-04-14, 01:02:04,VALID,1001.24,VALID,0,VALID,93.0661,VALID,0,VALID,22.6672,VALID,310,VALID,0.0960938,
2011-04-14, 01:03:04,VALID,1001.14,VALID,0.5,VALID,93.1195,VALID,0,VALID,22.6672,VALID,1,VALID,0.645312,
2011-04-14, 01:04:04,VALID,1001.18,VALID,0,VALID,93.1043,VALID,0,VALID,22.6477,VALID,8,VALID,0.484375,
2011-04-14, 01:05:04,VALID,1001.13,VALID,0,VALID,93.1271,VALID,0,VALID,22.6477,VALID,8,VALID,0.175391,
2011-04-14, 01:06:04,VALID,1001.05,VALID,0.5,VALID,93.15,VALID,0,VALID,22.6282,VALID,106,VALID,1.51328,
2011-04-14, 01:07:04,VALID,1001.05,VALID,0,VALID,93.1577,VALID,0,VALID,22.6069,VALID,97,VALID,0.752344,
2011-04-14, 01:08:04,VALID,1001.04,VALID,0,VALID,93.1729,VALID,0,VALID,22.6087,VALID,198,VALID,0.953906,
2011-04-14, 01:09:04,VALID,1001.04,VALID,0,VALID,93.1805,VALID,0,VALID,22.5679,VALID,130,VALID,1.15391,
2011-04-14, 01:10:04,VALID,1001.02,VALID,0,VALID,93.1958,VALID,0,VALID,22.5696,VALID,94,VALID,1.25312,
2011-04-14, 01:11:04,VALID,1001.02,VALID,0,VALID,93.1805,VALID,0,VALID,22.5501,VALID,120,VALID,0.684375,
2011-04-14, 01:12:04,VALID,1000.99,VALID,0.5,VALID,93.1805,VALID,0,VALID,22.5696,VALID,106,VALID,1.06328,
2011-04-14, 01:13:04,VALID,1000.98,VALID,0,VALID,93.1882,VALID,0,VALID,22.5501,VALID,127,VALID,0.936328,
2011-04-14, 01:14:04,VALID,1000.92,VALID,0,VALID,93.1653,VALID,0,VALID,22.5306,VALID,123,VALID,0.886328,
2011-04-14, 01:15:04,VALID,1000.88,VALID,0,VALID,93.1805,VALID,0,VALID,22.5501,VALID,143,VALID,0.778906,
2011-04-14, 01:16:04,VALID,1000.86,VALID,0,VALID,93.1805,VALID,0,VALID,22.5696,VALID,119,VALID,1.07539,
2011-04-14, 01:17:04,VALID,1000.84,VALID,0,VALID,93.1805,VALID,0,VALID,22.5892,VALID,129,VALID,0.747656,
2011-04-14, 01:18:04,VALID,1000.82,VALID,0,VALID,93.1653,VALID,0,VALID,22.6282,VALID,116,VALID,1.45195,
2011-04-14, 01:19:04,VALID,1000.77,VALID,0,VALID,93.1653,VALID,0,VALID,22.6672,VALID,126,VALID,1.65664,
2011-04-14, 01:20:04,VALID,1000.78,VALID,0,VALID,93.1958,VALID,0,VALID,22.6672,VALID,139,VALID,1.54219,
2011-04-14, 01:21:04,VALID,1000.74,VALID,0,VALID,93.1958,VALID,0,VALID,22.6672,VALID,148,VALID,1.55703,
2011-04-14, 01:22:04,VALID,1000.71,VALID,0,VALID,93.1882,VALID,0,VALID,22.6477,VALID,153,VALID,1.49805,
2011-04-14, 01:23:04,VALID,1000.69,VALID,0,VALID,93.1958,VALID,0,VALID,22.6655,VALID,147,VALID,1.23164,
2011-04-14, 01:24:04,VALID,1000.64,VALID,0,VALID,93.2034,VALID,0,VALID,22.6477,VALID,157,VALID,1.24922,
2011-04-14, 01:25:04,VALID,1000.62,VALID,0,VALID,93.2034,VALID,0,VALID,22.6282,VALID,150,VALID,1.08984,
2011-04-14, 01:26:04,VALID,1000.6,VALID,0,VALID,93.1882,VALID,0,VALID,22.6087,VALID,152,VALID,1.17813,
2011-04-14, 01:27:04,VALID,1000.53,VALID,0,VALID,93.1958,VALID,0,VALID,22.6282,VALID,148,VALID,1.44375,
2011-04-14, 01:28:04,VALID,1000.54,VALID,0.5,VALID,93.1882,VALID,0,VALID,22.6477,VALID,146,VALID,1.33906,
2011-04-14, 01:29:04,VALID,1000.52,VALID,0,VALID,93.1882,VALID,0,VALID,22.6672,VALID,145,VALID,1.03359,
2011-04-14, 01:30:04,VALID,1000.52,VALID,0,VALID,93.1729,VALID,0,VALID,22.6884,VALID,141,VALID,0.883594,
2011-04-14, 01:31:04,VALID,1000.46,VALID,0,VALID,93.1882,VALID,0,VALID,22.6672,VALID,108,VALID,0.667969,
2011-04-14, 01:32:04,VALID,1000.43,VALID,0,VALID,93.1729,VALID,0,VALID,22.6477,VALID,106,VALID,1.00469,
2011-04-14, 01:33:04,VALID,1000.39,VALID,0,VALID,93.1729,VALID,0,VALID,22.6672,VALID,106,VALID,0.980469,
2011-04-14, 01:34:04,VALID,1000.37,VALID,0,VALID,93.1577,VALID,0,VALID,22.6672,VALID,130,VALID,0.903125,
2011-04-14, 01:35:04,VALID,1000.32,VALID,0,VALID,93.1653,VALID,0,VALID,22.6477,VALID,121,VALID,1.025,
2011-04-14, 01:36:04,VALID,1000.31,VALID,0,VALID,93.1653,VALID,0,VALID,22.6672,VALID,108,VALID,0.678516,
2011-04-14, 01:37:04,VALID,1000.29,VALID,0,VALID,93.1653,VALID,0,VALID,22.6672,VALID,104,VALID,0.692187,
2011-04-14, 01:38:04,VALID,1000.27,VALID,0,VALID,93.1805,VALID,0,VALID,22.6672,VALID,104,VALID,0.48125,
2011-04-14, 01:39:04,VALID,1000.28,VALID,0,VALID,93.1805,VALID,0,VALID,22.6867,VALID,104,VALID,0.541406,
2011-04-14, 01:40:04,VALID,1000.28,VALID,0,VALID,93.2034,VALID,0,VALID,22.6867,VALID,104,VALID,0.485156,
2011-04-14, 01:41:04,VALID,1000.26,VALID,0,VALID,93.1805,VALID,0,VALID,22.6867,VALID,104,VALID,0.575781,
2011-04-14, 01:42:04,VALID,1000.22,VALID,0,VALID,93.2187,VALID,0,VALID,22.7257,VALID,103,VALID,0.666406,
2011-04-14, 01:43:04,VALID,1000.2,VALID,0,VALID,93.2111,VALID,0,VALID,22.7257,VALID,103,VALID,0.746484,
2011-04-14, 01:44:04,VALID,1000.19,VALID,0,VALID,93.2263,VALID,0,VALID,22.7257,VALID,104,VALID,1.00078,
2011-04-14, 01:45:04,VALID,1000.17,VALID,0,VALID,93.2416,VALID,0,VALID,22.7257,VALID,104,VALID,0.890234,
2011-04-14, 01:46:04,VALID,1000.14,VALID,0,VALID,93.234,VALID,0,VALID,22.7452,VALID,104,VALID,0.785937,
2011-04-14, 01:47:04,VALID,1000.12,VALID,0,VALID,93.2568,VALID,0,VALID,22.7257,VALID,108,VALID,0.955469,
2011-04-14, 01:48:04,VALID,1000.07,VALID,0,VALID,93.2645,VALID,0,VALID,22.7452,VALID,108,VALID,0.727734,
2011-04-14, 01:49:04,VALID,1000.04,VALID,0,VALID,93.2645,VALID,0,VALID,22.7452,VALID,108,VALID,0.637109,
2011-04-14, 01:50:04,VALID,1000.02,VALID,0,VALID,93.2797,VALID,0,VALID,22.7452,VALID,108,VALID,0.923828,
2011-04-14, 01:51:04,VALID,999.985,VALID,0,VALID,93.2874,VALID,0,VALID,22.7257,VALID,108,VALID,0.498437,
2011-04-14, 01:52:04,VALID,999.918,VALID,0,VALID,93.295,VALID,0,VALID,22.7257,VALID,107,VALID,0.928906,
2011-04-14, 01:53:04,VALID,999.914,VALID,0,VALID,93.3026,VALID,0,VALID,22.724,VALID,104,VALID,0.677344,
2011-04-14, 01:54:04,VALID,999.954,VALID,0,VALID,93.295,VALID,0,VALID,22.7257,VALID,100,VALID,0.833984,
2011-04-14, 01:55:04,VALID,999.919,VALID,0,VALID,93.3103,VALID,0,VALID,22.7257,VALID,114,VALID,0.938672,
2011-04-14, 01:56:04,VALID,999.936,VALID,0,VALID,93.3179,VALID,0,VALID,22.7257,VALID,101,VALID,0.705859,
2011-04-14, 01:57:04,VALID,999.97,VALID,0,VALID,93.2874,VALID,0,VALID,22.7062,VALID,111,VALID,1.27852,
2011-04-14, 01:58:04,VALID,999.944,VALID,0,VALID,93.3026,VALID,0,VALID,22.7062,VALID,117,VALID,1.02461,
2011-04-14, 01:59:04,VALID,999.933,VALID,0,VALID,93.295,VALID,0,VALID,22.7062,VALID,104,VALID,0.835938,
2011-04-14, 02:00:04,VALID,999.941,VALID,0,VALID,93.3255,VALID,0,VALID,22.7452,VALID,89,VALID,0.966797,
2011-04-14, 02:01:04,VALID,999.974,VALID,0,VALID,93.3103,VALID,0,VALID,22.7257,VALID,69,VALID,1.05039,
2011-04-14, 02:02:04,VALID,999.924,VALID,0,VALID,93.3179,VALID,0,VALID,22.7257,VALID,54,VALID,1.12266,
2011-04-14, 02:03:04,VALID,999.928,VALID,0,VALID,93.3179,VALID,0,VALID,22.7062,VALID,45,VALID,1.00469,
2011-04-14, 02:04:04,VALID,999.899,VALID,0,VALID,93.3255,VALID,0,VALID,22.7062,VALID,41,VALID,1.36836,
2011-04-14, 02:05:04,VALID,999.855,VALID,0,VALID,93.3408,VALID,0,VALID,22.7257,VALID,48,VALID,1.62539,
2011-04-14, 02:06:04,VALID,999.823,VALID,0,VALID,93.3255,VALID,0,VALID,22.7062,VALID,57,VALID,1.61719,
2011-04-14, 02:07:04,VALID,999.819,VALID,0,VALID,93.3331,VALID,0,VALID,22.7062,VALID,54,VALID,1.19961,
2011-04-14, 02:08:04,VALID,999.833,VALID,0,VALID,93.3255,VALID,0,VALID,22.7257,VALID,45,VALID,0.830859,
2011-04-14, 02:09:04,VALID,999.769,VALID,0,VALID,93.3484,VALID,0,VALID,22.7257,VALID,48,VALID,0.599609,
2011-04-14, 02:10:04,VALID,999.774,VALID,0,VALID,93.3408,VALID,0,VALID,22.7452,VALID,48,VALID,0.458594,
2011-04-14, 02:11:04,VALID,999.753,VALID,0,VALID,93.3408,VALID,0,VALID,22.7647,VALID,76,VALID,0.685547,
2011-04-14, 02:12:04,VALID,999.706,VALID,0,VALID,93.3179,VALID,0,VALID,22.7647,VALID,78,VALID,0.6875,
2011-04-14, 02:13:04,VALID,999.71,VALID,0,VALID,93.3331,VALID,0,VALID,22.7452,VALID,101,VALID,0.5875,
2011-04-14, 02:14:04,VALID,999.682,VALID,0,VALID,93.356,VALID,0,VALID,22.7452,VALID,106,VALID,0.390625,
2011-04-14, 02:15:04,VALID,999.701,VALID,0,VALID,93.3408,VALID,0,VALID,22.7452,VALID,145,VALID,0.482031,
2011-04-14, 02:16:04,VALID,999.707,VALID,0,VALID,93.3637,VALID,0,VALID,22.7452,VALID,158,VALID,0.589453,
2011-04-14, 02:17:04,VALID,999.704,VALID,0,VALID,93.3484,VALID,0,VALID,22.7452,VALID,158,VALID,0.746094,
2011-04-14, 02:18:04,VALID,999.707,VALID,0,VALID,93.3484,VALID,0,VALID,22.7452,VALID,158,VALID,0.608203,
2011-04-14, 02:19:04,VALID,999.687,VALID,0,VALID,93.3484,VALID,0,VALID,22.7647,VALID,158,VALID,0.827344,
2011-04-14, 02:20:04,VALID,999.726,VALID,0,VALID,93.3637,VALID,0,VALID,22.7647,VALID,158,VALID,0.852734,
2011-04-14, 02:21:04,VALID,999.688,VALID,0,VALID,93.3408,VALID,0,VALID,22.7647,VALID,158,VALID,0.635156,
2011-04-14, 02:22:04,VALID,999.654,VALID,0,VALID,93.3713,VALID,0,VALID,22.7452,VALID,158,VALID,0.823828,
2011-04-14, 02:23:04,VALID,999.639,VALID,0,VALID,93.356,VALID,0,VALID,22.7842,VALID,158,VALID,0.832422,
2011-04-14, 02:24:04,VALID,999.656,VALID,0,VALID,93.3408,VALID,0,VALID,22.8037,VALID,150,VALID,0.951172,
2011-04-14, 02:25:04,VALID,999.655,VALID,0.5,VALID,93.356,VALID,0,VALID,22.8037,VALID,150,VALID,0.593359,
2011-04-14, 02:26:04,VALID,999.639,VALID,0,VALID,93.3637,VALID,0,VALID,22.8232,VALID,150,VALID,0.646094,
2011-04-14, 02:27:04,VALID,999.617,VALID,0,VALID,93.3637,VALID,0,VALID,22.864,VALID,150,VALID,0.804297,
2011-04-14, 02:28:04,VALID,999.581,VALID,0,VALID,93.356,VALID,0,VALID,22.8623,VALID,153,VALID,0.709375,
2011-04-14, 02:29:04,VALID,999.571,VALID,0,VALID,93.3713,VALID,0,VALID,22.8623,VALID,150,VALID,0.686719,
2011-04-14, 02:30:04,VALID,999.606,VALID,0,VALID,93.3637,VALID,0,VALID,22.8818,VALID,150,VALID,0.926953,
2011-04-14, 02:31:04,VALID,999.615,VALID,0,VALID,93.3637,VALID,0,VALID,22.8818,VALID,154,VALID,0.7875,
2011-04-14, 02:32:04,VALID,999.619,VALID,0,VALID,93.3637,VALID,0,VALID,22.8605,VALID,181,VALID,1.12695,
2011-04-14, 02:33:04,VALID,999.596,VALID,0,VALID,93.356,VALID,0,VALID,22.9013,VALID,181,VALID,0.881641,
2011-04-14, 02:34:04,VALID,999.594,VALID,0,VALID,93.3637,VALID,0,VALID,22.9013,VALID,172,VALID,0.854297,
2011-04-14, 02:35:04,VALID,999.552,VALID,0,VALID,93.3713,VALID,0,VALID,22.8818,VALID,164,VALID,0.791797,
2011-04-14, 02:36:04,VALID,999.528,VALID,0,VALID,93.356,VALID,0.112286,VALID,22.88,VALID,153,VALID,0.636328,
2011-04-14, 02:37:04,VALID,999.56,VALID,0,VALID,93.3637,VALID,0,VALID,22.8605,VALID,139,VALID,0.569141,
2011-04-14, 02:38:04,VALID,999.579,VALID,0,VALID,93.3637,VALID,0,VALID,22.8818,VALID,139,VALID,0.353125,
2011-04-14, 02:39:04,VALID,999.559,VALID,0,VALID,93.3713,VALID,0,VALID,22.8818,VALID,139,VALID,0.495703,
2011-04-14, 02:40:04,VALID,999.519,VALID,0,VALID,93.3637,VALID,0,VALID,22.8623,VALID,139,VALID,0.511719,
2011-04-14, 02:41:04,VALID,999.51,VALID,0,VALID,93.3713,VALID,0.112286,VALID,22.841,VALID,139,VALID,0.375391,
2011-04-14, 02:42:04,VALID,999.455,VALID,0,VALID,93.3408,VALID,0.112286,VALID,22.8623,VALID,139,VALID,0.172656,
2011-04-14, 02:43:04,VALID,999.458,VALID,0,VALID,93.3637,VALID,0,VALID,22.8623,VALID,139,VALID,0.357422,
2011-04-14, 02:44:04,VALID,999.454,VALID,0,VALID,93.356,VALID,0,VALID,22.8427,VALID,139,VALID,0.266797,
2011-04-14, 02:45:04,VALID,999.425,VALID,0,VALID,93.3713,VALID,0,VALID,22.8215,VALID,139,VALID,0.231641,
2011-04-14, 02:46:04,VALID,999.468,VALID,0,VALID,93.356,VALID,0,VALID,22.802,VALID,139,VALID,0.0394531,
2011-04-14, 02:47:04,VALID,999.425,VALID,0,VALID,93.3637,VALID,0,VALID,22.802,VALID,139,VALID,0.263672,
2011-04-14, 02:48:04,VALID,999.389,VALID,0,VALID,93.356,VALID,0,VALID,22.8232,VALID,139,VALID,0.330078,
2011-04-14, 02:49:04,VALID,999.359,VALID,0,VALID,93.3789,VALID,0,VALID,22.802,VALID,139,VALID,0.556641,
2011-04-14, 02:50:04,VALID,999.348,VALID,0,VALID,93.3637,VALID,0.112286,VALID,22.8215,VALID,139,VALID,0.696484,
2011-04-14, 02:51:04,VALID,999.362,VALID,0,VALID,93.3713,VALID,0,VALID,22.8215,VALID,139,VALID,0.436719,
2011-04-14, 02:52:04,VALID,999.307,VALID,0,VALID,93.3408,VALID,0,VALID,22.8427,VALID,139,VALID,0.261328,
2011-04-14, 02:53:04,VALID,999.301,VALID,0,VALID,93.3713,VALID,0,VALID,22.8427,VALID,139,VALID,0.252734,
2011-04-14, 02:54:04,VALID,999.271,VALID,0,VALID,93.3789,VALID,0,VALID,22.8427,VALID,139,VALID,0.419141,
2011-04-14, 02:55:04,VALID,999.254,VALID,0,VALID,93.3713,VALID,0,VALID,22.8623,VALID,124,VALID,0.900781,
2011-04-14, 02:56:04,VALID,999.257,VALID,0,VALID,93.3637,VALID,0,VALID,22.8818,VALID,123,VALID,0.873828,
2011-04-14, 02:57:04,VALID,999.27,VALID,0,VALID,93.3484,VALID,0,VALID,22.8605,VALID,123,VALID,0.653906,
2011-04-14, 02:58:04,VALID,999.25,VALID,0,VALID,93.3789,VALID,0,VALID,22.9013,VALID,123,VALID,0.155469,
2011-04-14, 02:59:04,VALID,999.258,VALID,0,VALID,93.3713,VALID,0,VALID,22.9013,VALID,123,VALID,0.00585938,
2011-04-14, 03:00:04,VALID,999.273,VALID,0,VALID,93.3789,VALID,0,VALID,22.8818,VALID,123,VALID,0,
2011-04-14, 03:01:04,VALID,999.249,VALID,0,VALID,93.3713,VALID,0,VALID,22.9225,VALID,123,VALID,0.503516,
2011-04-14, 03:02:04,VALID,999.249,VALID,0,VALID,93.3866,VALID,0,VALID,22.8818,VALID,123,VALID,0.478516,
2011-04-14, 03:03:04,VALID,999.237,VALID,0,VALID,93.3866,VALID,0,VALID,22.9013,VALID,98,VALID,0.930078,
2011-04-14, 03:04:04,VALID,999.256,VALID,0,VALID,93.3866,VALID,0,VALID,22.9403,VALID,95,VALID,0.620703,
2011-04-14, 03:05:04,VALID,999.266,VALID,0,VALID,93.3942,VALID,0,VALID,22.9403,VALID,95,VALID,0.570703,
2011-04-14, 03:06:04,VALID,999.232,VALID,0,VALID,93.3789,VALID,0,VALID,22.9615,VALID,95,VALID,0.575781,
2011-04-14, 03:07:04,VALID,999.239,VALID,0,VALID,93.3942,VALID,0,VALID,22.9013,VALID,95,VALID,0.836328,
2011-04-14, 03:08:04,VALID,999.218,VALID,0,VALID,93.3942,VALID,0,VALID,22.9013,VALID,95,VALID,0.758203,
2011-04-14, 03:09:04,VALID,999.218,VALID,0,VALID,93.3942,VALID,0,VALID,22.8818,VALID,95,VALID,0.867188,
2011-04-14, 03:10:04,VALID,999.183,VALID,0,VALID,93.3942,VALID,0,VALID,22.8835,VALID,96,VALID,0.867188,
2011-04-14, 03:11:04,VALID,999.174,VALID,0,VALID,93.4018,VALID,0,VALID,22.8445,VALID,98,VALID,0.655469,
2011-04-14, 03:12:04,VALID,999.179,VALID,0,VALID,93.4018,VALID,0,VALID,22.8232,VALID,98,VALID,0.441016,
2011-04-14, 03:13:04,VALID,999.169,VALID,0,VALID,93.4171,VALID,0,VALID,22.8445,VALID,98,VALID,0.661719,
2011-04-14, 03:14:04,VALID,999.143,VALID,0,VALID,93.4171,VALID,0,VALID,22.825,VALID,79,VALID,0.615234,
2011-04-14, 03:15:04,VALID,999.162,VALID,0,VALID,93.4018,VALID,0,VALID,22.802,VALID,79,VALID,0.759766,
2011-04-14, 03:16:04,VALID,999.185,VALID,0,VALID,93.4247,VALID,0.112286,VALID,22.8427,VALID,79,VALID,0.502734,
2011-04-14, 03:17:04,VALID,999.148,VALID,0,VALID,93.4094,VALID,0,VALID,22.8232,VALID,79,VALID,0.66875,
2011-04-14, 03:18:04,VALID,999.175,VALID,0,VALID,93.4094,VALID,0.112286,VALID,22.802,VALID,79,VALID,0.283203,
2011-04-14, 03:19:04,VALID,999.14,VALID,0,VALID,93.4094,VALID,0.112286,VALID,22.7825,VALID,79,VALID,0,
2011-04-14, 03:20:04,VALID,999.148,VALID,0,VALID,93.4323,VALID,0,VALID,22.7825,VALID,79,VALID,0,
2011-04-14, 03:21:04,VALID,999.119,VALID,0,VALID,93.4018,VALID,0,VALID,22.763,VALID,79,VALID,0,
2011-04-14, 03:22:04,VALID,999.152,VALID,0,VALID,93.4094,VALID,0,VALID,22.7435,VALID,79,VALID,0,
2011-04-14, 03:23:04,VALID,999.159,VALID,0,VALID,93.4171,VALID,0.112286,VALID,22.7435,VALID,79,VALID,0,
2011-04-14, 03:24:04,VALID,999.155,VALID,0,VALID,93.4247,VALID,0,VALID,22.7842,VALID,79,VALID,0,
2011-04-14, 03:25:04,VALID,999.148,VALID,0,VALID,93.4323,VALID,0,VALID,22.7647,VALID,79,VALID,0,
2011-04-14, 03:26:04,VALID,999.136,VALID,0,VALID,93.4247,VALID,0,VALID,22.7435,VALID,79,VALID,0,
2011-04-14, 03:27:04,VALID,999.172,VALID,0,VALID,93.4323,VALID,0,VALID,22.7435,VALID,79,VALID,0,
2011-04-14, 03:28:04,VALID,999.179,VALID,0,VALID,93.4171,VALID,0,VALID,22.763,VALID,79,VALID,0,
2011-04-14, 03:29:04,VALID,999.182,VALID,0,VALID,93.4247,VALID,0,VALID,22.763,VALID,79,VALID,0,
2011-04-14, 03:30:04,VALID,999.212,VALID,0,VALID,93.4323,VALID,0,VALID,22.7842,VALID,79,VALID,0,
2011-04-14, 03:31:04,VALID,999.193,VALID,0,VALID,93.4171,VALID,0,VALID,22.7842,VALID,79,VALID,0,
2011-04-14, 03:32:04,VALID,999.209,VALID,0,VALID,93.44,VALID,0,VALID,22.7825,VALID,79,VALID,0.796875,
2011-04-14, 03:33:04,VALID,999.18,VALID,0,VALID,93.4323,VALID,0.112286,VALID,22.8427,VALID,84,VALID,1.07148,
2011-04-14, 03:34:04,VALID,999.245,VALID,0,VALID,93.4323,VALID,0.112286,VALID,22.8623,VALID,77,VALID,0.852734,
2011-04-14, 03:35:04,VALID,999.219,VALID,0,VALID,93.4476,VALID,0,VALID,22.8623,VALID,80,VALID,1.17695,
2011-04-14, 03:36:04,VALID,999.245,VALID,0,VALID,93.4552,VALID,0,VALID,22.841,VALID,65,VALID,1.25039,
2011-04-14, 03:37:04,VALID,999.281,VALID,0,VALID,93.44,VALID,0,VALID,22.8623,VALID,68,VALID,1.11797,
2011-04-14, 03:38:04,VALID,999.263,VALID,0,VALID,93.4323,VALID,0,VALID,22.8623,VALID,78,VALID,0.301562,
2011-04-14, 03:39:04,VALID,999.29,VALID,0,VALID,93.44,VALID,0,VALID,22.8623,VALID,78,VALID,0,
2011-04-14, 03:40:04,VALID,999.259,VALID,0,VALID,93.4323,VALID,0,VALID,22.8623,VALID,51,VALID,0.56875,
2011-04-14, 03:41:04,VALID,999.25,VALID,0,VALID,93.4476,VALID,0,VALID,22.8623,VALID,48,VALID,0.510938,
2011-04-14, 03:42:04,VALID,999.232,VALID,0,VALID,93.4476,VALID,0,VALID,22.8623,VALID,350,VALID,0.721875,
2011-04-14, 03:43:04,VALID,999.219,VALID,0,VALID,93.4323,VALID,0,VALID,22.8427,VALID,347,VALID,0.464453,
2011-04-14, 03:44:04,VALID,999.205,VALID,0,VALID,93.4247,VALID,0,VALID,22.8427,VALID,347,VALID,0.416406,
2011-04-14, 03:45:04,VALID,999.232,VALID,0,VALID,93.4476,VALID,0,VALID,22.8037,VALID,347,VALID,0.148438,